| time (UTC) | temp F | wind direction | speed knots | gust knots | rain 1hr in | rain 24hr in | rain mn in | humidity % | barometer mb |
| 20260505070039 | 67 | 150 | 3.5 | 7.0 | 0.00 | 0.00 | 0.00 | 74 | 1008.0 |
| 20260505064550 | 67 | 174 | 4.3 | 6.1 | 0.00 | 0.00 | 0.00 | 74 | 1008.2 |
| 20260505063035 | 66 | 160 | 3.5 | 5.2 | 0.00 | 0.00 | 0.00 | 74 | 1008.6 |
| 20260505061540 | 66 | 165 | 2.6 | 4.3 | 0.00 | 0.00 | 0.00 | 74 | 1008.9 |
| 20260505060033 | 66 | 146 | 1.7 | 2.6 | 0.00 | 0.00 | 0.00 | 73 | 1009.0 |
| 20260505054531 | 66 | 152 | 0.9 | 2.6 | 0.00 | 0.00 | 0.00 | 72 | 1009.1 |
| 20260505053036 | 66 | 147 | 1.7 | 2.6 | 0.00 | 0.00 | 0.00 | 71 | 1009.1 |
| 20260505051535 | 67 | 147 | 2.6 | 4.3 | 0.00 | 0.00 | 0.00 | 71 | 1009.1 |
| 20260505041536 | 68 | 150 | 1.7 | 2.6 | 0.00 | 0.00 | 0.00 | 68 | 1009.4 |
| 20260505040031 | 68 | 155 | 0.9 | 2.6 | 0.00 | 0.00 | 0.00 | 68 | 1009.3 |
| 20260505034536 | 69 | 162 | 2.6 | 3.5 | 0.00 | 0.00 | 0.00 | 67 | 1009.4 |
| 20260505033035 | 69 | 160 | 1.7 | 4.3 | 0.00 | 0.00 | 0.00 | 66 | 1009.5 |
| 20260505031530 | 69 | 146 | 2.6 | 4.3 | 0.00 | 0.00 | 0.00 | 65 | 1009.3 |
| 20260505030032 | 69 | 149 | 1.7 | 3.5 | 0.00 | 0.00 | 0.00 | 67 | 1009.1 |
| 20260505024541 | 69 | 158 | 1.7 | 2.6 | 0.00 | 0.00 | 0.00 | 67 | 1009.0 |
| 20260505023043 | 70 | 152 | 1.7 | 2.6 | 0.00 | 0.00 | 0.00 | 67 | 1008.7 |
| 20260505021537 | 70 | 143 | 1.7 | 2.6 | 0.00 | 0.00 | 0.00 | 66 | 1008.6 |
| 20260505020033 | 71 | 160 | 1.7 | 2.6 | 0.00 | 0.00 | 0.00 | 64 | 1008.4 |
| 20260505014537 | 72 | 135 | 1.7 | 3.5 | 0.00 | 0.00 | 0.00 | 62 | 1008.3 |
| 20260505013032 | 72 | 162 | 1.7 | 3.5 | 0.00 | 0.00 | 0.00 | 58 | 1008.1 |
| 20260505011535 | 73 | 181 | 1.7 | 3.5 | 0.00 | 0.00 | 0.00 | 57 | 1008.1 |
| 20260505010031 | 73 | 163 | 1.7 | 3.5 | 0.00 | 0.00 | 0.00 | 57 | 1008.0 |
| 20260505004531 | 74 | 155 | 0.9 | 3.5 | 0.00 | 0.00 | 0.00 | 56 | 1008.0 |
| 20260505003035 | 75 | 172 | 1.7 | 4.3 | 0.00 | 0.00 | 0.00 | 54 | 1007.9 |
| 20260505001540 | 75 | 174 | 2.6 | 6.1 | 0.00 | 0.00 | 0.00 | 54 | 1007.8 |
| 20260505000039 | 76 | 176 | 1.7 | 3.5 | 0.00 | 0.00 | 0.00 | 53 | 1008.0 |
| 20260504234533 | 77 | 138 | 2.6 | 5.2 | 0.00 | 0.00 | 0.00 | 52 | 1008.2 |
| 20260504233032 | 77 | 170 | 2.6 | 5.2 | 0.00 | 0.00 | 0.00 | 50 | 1008.3 |
| 20260504231540 | 78 | 253 | 2.6 | 6.1 | 0.00 | 0.00 | 0.00 | 49 | 1008.6 |
| 20260504230035 | 79 | 233 | 4.3 | 10.4 | 0.00 | 0.00 | 0.00 | 46 | 1008.8 |
| 20260504224535 | 80 | 226 | 2.6 | 10.4 | 0.00 | 0.00 | 0.00 | 46 | 1008.8 |
| 20260504223033 | 80 | 160 | 3.5 | 7.8 | 0.00 | 0.00 | 0.00 | 46 | 1008.7 |
| 20260504221531 | 80 | 160 | 3.5 | 7.8 | 0.00 | 0.00 | 0.00 | 47 | 1008.8 |
| 20260504220035 | 80 | 171 | 3.5 | 7.8 | 0.00 | 0.00 | 0.00 | 47 | 1008.9 |
| 20260504214530 | 80 | 197 | 3.5 | 8.7 | 0.00 | 0.00 | 0.00 | 44 | 1009.0 |
| 20260504213034 | 80 | 167 | 5.2 | 8.7 | 0.00 | 0.00 | 0.00 | 45 | 1009.1 |
| 20260504211532 | 80 | 173 | 4.3 | 9.6 | 0.00 | 0.00 | 0.00 | 47 | 1009.3 |
| 20260504210050 | 79 | 165 | 3.5 | 8.7 | 0.00 | 0.00 | 0.00 | 48 | 1009.5 |
| 20260504204534 | 80 | 239 | 3.5 | 12.2 | 0.00 | 0.00 | 0.00 | 47 | 1009.8 |
| 20260504203034 | 80 | 242 | 4.3 | 9.6 | 0.00 | 0.00 | 0.00 | 46 | 1010.1 |
| 20260504201535 | 80 | 183 | 5.2 | 9.6 | 0.00 | 0.00 | 0.00 | 45 | 1010.3 |
| 20260504200033 | 79 | 218 | 4.3 | 9.6 | 0.00 | 0.00 | 0.00 | 47 | 1010.6 |
| 20260504194550 | 79 | 176 | 4.3 | 9.6 | 0.00 | 0.00 | 0.00 | 46 | 1010.8 |
| 20260504193032 | 79 | 240 | 4.3 | 10.4 | 0.00 | 0.00 | 0.00 | 47 | 1010.8 |
| 20260504191540 | 80 | 149 | 4.3 | 12.2 | 0.00 | 0.00 | 0.00 | 47 | 1011.2 |
| 20260504190035 | 79 | 184 | 3.5 | 10.4 | 0.00 | 0.00 | 0.00 | 48 | 1011.3 |
| 20260504184539 | 78 | 150 | 5.2 | 13.9 | 0.00 | 0.00 | 0.00 | 47 | 1011.4 |
| 20260504183032 | 78 | 180 | 3.5 | 9.6 | 0.00 | 0.00 | 0.00 | 50 | 1011.6 |
| 20260504181539 | 78 | 205 | 5.2 | 11.3 | 0.00 | 0.00 | 0.00 | 49 | 1011.9 |
| 20260504180055 | 77 | 198 | 2.6 | 8.7 | 0.00 | 0.00 | 0.00 | 50 | 1012.0 |
| 20260504174530 | 76 | 160 | 3.5 | 11.3 | 0.00 | 0.00 | 0.00 | 53 | 1012.3 |
| 20260504173036 | 76 | 248 | 5.2 | 10.4 | 0.00 | 0.00 | 0.00 | 51 | 1012.5 |
| 20260504171532 | 75 | 245 | 4.3 | 9.6 | 0.00 | 0.00 | 0.00 | 53 | 1012.7 |
| 20260504081531 | 63 | 208 | 0.9 | 2.6 | 0.00 | 0.00 | 0.00 | 73 | 1013.3 |